Probability
0 0 0 0 0 0 0 0 0 0 0 0 0 0 0 0 0 0 0 0 0 1 4 6 6 4 2 1 0 0 0 0 0 0 0 0 0 0 0 0 0 0 0 0 0 1 2 3 4
0 0 0 0 0 0 0 0 0 0 0 0 0 0 0 0 0 0 0 0 0 1 4 6 6 4 2 1 0 0 0 0 0 0 0 0 0 0 0 0 0 0 0 0 0 1 3 4 5
0 0 0 0 0 0 0 0 0 0 0 0 0 0 0 0 0 0 0 0 0 1 4 6 6 4 3 1 0 0 0 0 0 1 1 1 1 1 0 0 0 0 0 0 0 2 3 4 5
0 0 0 0 0 0 0 0 0 0 0 0 0 0 0 0 0 0 0 0 0 1 4 6 6 5 3 2 0 0 0 0 0 0 1 1 2 2 1 0 0 0 0 0 0 1 2 3 3
0 0 0 0 0 0 0 0 0 0 0 0 0 0 0 0 0 0 0 0 0 2 5 6 5 4 2 1 0 0 1 1 1 1 0 1 1 2 2 1 1 0 0 0 0 0 1 1 1
0 0 0 0 0 0 0 0 0 0 0 0 0 0 0 0 0 0 0 0 0 1 4 6 4 2 1 0 0 1 2 2 2 2 1 0 0 1 1 1 1 0 0 0 0 0 0 0 0
0 0 0 0 0 0 0 0 0 0 0 0 0 0 0 0 0 0 0 0 0 1 3 4 2 1 0 0 0 1 2 2 2 2 1 0 0 0 0 1 1 1 1 1 0 0 1 1 0
0 0 0 0 0 0 0 0 0 0 0 0 0 0 0 0 0 0 0 0 0 0 1 1 1 0 0 0 0 0 1 1 1 1 0 0 0 0 0 0 0 1 2 2 1 1 1 1 1
0 0 0 0 0 0 0 0 0 0 0 0 0 0 0 0 0 0 0 0 0 0 0 1 1 1 1 0 0 0 0 0 0 0 0 0 0 0 0 0 0 1 2 2 2 1 1 1 0
0 0 0 0 0 0 0 0 0 0 0 0 0 0 0 0 0 0 0 0 0 0 0 1 2 3 2 1 0 0 0 0 0 0 0 0 0 0 0 0 0 0 1 1 2 2 1 0 0
0 0 0 0 0 0 0 0 0 0 0 0 0 0 0 0 0 0 0 0 0 0 0 1 2 2 2 2 1 0 0 0 0 0 0 0 1 1 0 0 0 0 0 0 1 2 1 1 0
0 0 0 0 0 0 0 0 0 0 0 0 0 0 0 0 0 0 0 0 0 0 0 0 1 1 1 2 2 0 0 0 0 0 0 1 2 2 1 0 0 0 0 0 1 2 2 1 1
0 0 0 0 0 0 0 0 0 0 0 0 0 0 0 0 0 0 0 0 0 0 0 0 0 0 1 2 3 1 0 0 0 0 0 1 2 3 2 1 0 0 0 0 0 1 1 1 1
0 0 0 0 0 0 0 0 0 0 0 0 0 0 0 0 0 0 0 0 0 0 0 0 0 0 0 1 2 2 2 2 1 0 0 0 1 2 2 1 0 0 0 0 0 0 0 0 1
0 0 0 0 0 0 0 0 0 0 0 0 0 0 0 0 0 0 0 0 0 0 0 0 0 0 0 0 1 2 2 2 1 0 0 0 0 1 1 1 0 0 0 0 0 0 0 0 0
0 0 0 0 0 0 0 0 0 0 0 0 0 0 0 0 0 0 0 0 0 0 0 0 0 0 0 0 0 1 2 2 1 0 0 0 0 0 0 0 0 0 0 0 0 0 0 0 0
0 0 0 0 0 0 0 0 0 0 0 0 0 0 0 0 0 0 0 0 0 0 0 0 0 0 0 0 0 0 1 1 1 0 0 0 0 0 0 0 0 0 0 0 0 0 0 0 0
0 0 0 0 0 0 0 0 0 0 0 0 0 0 0 0 0 0 0 0 0 0 0 0 0 0 0 0 0 0 0 1 1 0 0 0 0 0 0 0 0 0 0 0 0 0 0 0 0
0 0 0 0 0 0 0 0 0 0 0 0 0 0 0 0 0 0 0 0 0 0 0 0 0 0 0 0 0 0 0 1 1 1 0 0 0 0 0 0 0 0 0 0 0 0 0 0 0
0 0 0 0 0 0 0 0 0 0 0 0 0 0 0 0 0 0 0 0 0 0 0 0 0 0 0 0 0 1 1 2 2 1 0 0 0 0 0 0 0 0 0 0 0 0 0 0 0
0 0 0 0 0 0 0 0 0 0 0 0 0 0 0 0 0 0 0 0 0 0 1 1 0 0 0 0 1 2 2 2 1 0 0 0 0 0 0 0 0 0 0 0 0 0 0 0 0
0 0 0 0 0 0 0 0 0 0 0 0 0 0 0 0 0 0 0 0 0 0 1 1 0 0 0 0 1 2 2 1 0 0 0 0 0 0 0 0 0 0 0 0 0 0 0 0 0
0 0 0 0 0 0 0 0 0 0 0 0 0 0 0 0 0 0 0 0 0 0 0 0 0 0 0 0 0 1 1 0 0 0 1 1 0 0 0 0 0 0 0 0 0 0 0 0 0
0 0 0 0 0 0 0 0 0 0 0 0 0 0 0 0 0 0 0 0 0 0 0 0 0 0 0 0 0 0 0 0 1 1 2 2 1 0 0 0 0 0 0 0 0 0 0 0 0
0 0 0 0 0 0 0 0 0 0 0 0 0 0 0 0 0 0 0 0 0 0 0 0 0 0 0 0 0 0 0 0 0 1 2 2 1 0 0 0 0 0 0 0 0 0 0 0 0
0 0 0 0 0 0 0 0 0 0 0 0 0 0 0 0 0 0 0 0 0 0 0 0 0 0 0 0 0 0 0 0 0 0 1 1 0 0 0 0 1 1 0 0 0 0 0 0 0
0 0 0 0 0 0 0 0 0 0 0 0 0 0 0 0 0 0 0 0 0 0 0 0 0 0 0 0 0 0 0 0 0 0 0 0 0 0 0 0 1 1 0 0 0 0 0 0 0
0 0 0 0 0 0 0 0 0 0 0 0 0 0 0 0 0 0 0 0 0 0 0 0 0 0 0 0 0 0 0 0 0 0 0 0 0 0 0 0 1 1 0 0 0 0 0 0 0
0 0 0 0 0 0 0 0 0 0 0 0 0 0 0 0 0 0 0 0 0 0 0 0 0 0 0 0 0 0 0 0 0 0 0 0 0 0 0 0 0 0 0 0 0 0 0 0 0
0 0 0 0 0 0 0 0 0 0 0 0 0 0 0 0 0 0 0 0 0 0 0 0 0 0 0 0 0 0 0 0 0 0 0 0 0 0 0 0 0 0 0 0 0 0 0 0 0
Wind_Speed
5 3 2 2 4 3 5 4 3 3 2 1 1 0 1 0 1 3 4 2 2 4 5 5 5 6 7 7 7 6 6 5 5 5 5 6 5 6 6 7 7 6 7 8 8 8 8 8 8
3 2 2 3 5 6 5 5 6 4 2 2 1 1 1 2 3 3 2 1 3 5 5 5 6 7 7 7 7 6 6 5 5 5 5 5 5 5 5 6 6 6 6 7 7 7 7 7 7
1 1 2 3 5 6 3 3 4 2 2 1 1 1 1 2 2 2 2 2 4 5 5 6 6 7 7 7 7 6 5 5 5 5 5 5 5 5 5 5 5 5 5 5 5 6 6 6 6
2 2 2 4 7 5 3 1 3 4 3 1 2 2 2 3 2 2 3 3 5 6 5 6 6 6 6 7 6 5 5 5 5 5 5 5 5 5 5 5 5 4 4 4 5 5 5 5 5
1 2 4 6 7 4 3 2 3 3 3 2 2 1 2 3 3 3 3 4 5 5 5 6 6 6 6 6 5 5 5 4 5 5 5 5 5 5 5 5 5 5 4 4 4 4 5 5 5
2 3 6 8 8 5 3 3 4 4 3 2 2 2 3 4 3 3 4 4 4 5 4 5 6 6 5 5 5 5 5 5 5 5 5 5 5 6 5 5 5 5 5 4 4 4 5 5 4
3 4 6 7 6 6 4 3 4 5 4 2 2 2 3 3 3 3 4 4 4 4 4 4 4 4 5 5 4 5 5 5 5 5 6 6 5 5 5 5 4 4 4 3 4 4 4 4 4
1 3 5 6 6 5 2 3 1 3 2 0 1 3 2 3 3 4 4 4 4 3 3 3 3 3 3 4 4 5 5 5 5 5 6 5 5 5 4 4 4 3 3 3 3 3 4 4 4
2 5 6 6 5 3 3 3 2 0 2 2 1 2 3 4 4 5 4 4 3 3 2 2 2 2 2 3 3 4 4 5 4 4 5 3 2 3 2 4 4 4 4 3 3 4 4 3 3
3 5 6 2 2 2 2 2 3 3 3 2 2 1 3 4 4 5 4 4 3 2 2 1 2 2 2 2 2 2 2 2 1 1 2 1 1 1 1 4 4 4 4 3 3 3 3 1 1
2 4 2 2 1 1 2 2 2 5 4 4 4 3 3 4 4 4 4 4 3 2 2 1 1 1 2 1 1 1 1 1 1 1 1 1 1 1 1 1 1 2 2 2 2 1 1 1 1
2 2 2 1 1 2 2 2 3 4 4 2 2 2 4 4 4 4 4 3 3 2 2 1 1 1 1 1 1 1 1 1 1 1 1 1 0 1 1 0 1 1 0 1 1 1 1 1 1
4 3 1 1 1 1 2 4 4 4 4 2 1 3 4 4 4 3 3 3 3 3 3 2 2 2 2 1 1 1 1 1 1 0 0 0 0 0 0 0 0 1 1 0 0 1 1 1 1
2 2 2 2 2 2 3 5 4 5 3 2 2 3 3 4 4 3 4 4 4 4 3 3 3 2 2 2 1 1 1 1 1 0 0 0 0 0 1 0 0 0 1 1 1 1 1 1 1
2 2 3 3 3 3 4 6 7 5 3 3 3 3 3 3 3 4 4 4 4 4 3 3 3 3 3 2 2 1 1 1 1 0 0 0 0 0 1 0 0 0 1 0 0 1 1 1 1
2 4 5 2 2 2 5 8 4 3 5 5 3 3 2 2 2 2 3 3 3 3 3 3 2 2 2 2 2 1 1 1 0 0 0 0 0 0 1 0 0 0 0 0 0 1 1 1 1
4 6 6 4 2 2 6 8 3 2 4 5 5 4 3 3 2 2 2 2 2 3 3 3 3 3 2 2 1 1 1 1 0 0 0 0 0 0 0 1 1 0 0 1 1 1 1 1 2
6 6 6 6 2 4 7 10 6 4 6 6 5 4 4 4 3 2 1 1 1 2 2 3 3 3 2 2 1 1 1 1 0 0 0 0 0 0 0 0 1 1 1 1 1 1 1 1 1
4 6 7 5 2 5 9 11 9 7 6 7 6 5 5 4 2 1 0 1 1 1 2 2 2 3 2 2 2 2 1 1 0 0 0 0 0 0 0 0 0 1 1 1 1 1 1 1 1
5 6 7 4 2 4 7 11 10 8 8 7 7 6 5 4 2 1 1 1 1 1 1 2 2 3 3 2 2 1 1 1 1 0 0 1 1 1 1 1 1 1 1 1 1 1 2 1 2
8 9 7 5 4 4 7 9 8 5 5 5 5 6 5 5 4 3 2 2 1 1 1 1 2 2 2 2 2 1 1 1 0 1 1 1 1 1 1 1 1 1 1 1 2 2 2 2 2
7 5 6 5 4 3 3 7 6 5 5 5 5 5 5 5 5 4 3 2 2 1 1 1 1 1 2 2 2 3 2 2 2 1 1 1 1 1 1 1 1 1 1 2 2 2 2 3 2
4 2 4 4 5 5 5 7 6 3 5 5 5 5 5 5 4 4 3 2 2 1 1 1 1 1 1 1 2 2 2 1 1 1 1 1 1 1 1 2 1 2 2 2 2 2 3 2 3
3 2 2 3 4 7 6 8 7 4 5 4 4 5 4 4 3 3 2 2 1 1 1 1 1 0 0 1 1 2 2 1 1 1 1 1 1 1 1 2 1 2 2 2 3 3 3 3 3
3 4 3 4 5 6 3 7 8 2 3 4 4 4 3 3 3 2 2 2 1 1 1 1 1 1 0 1 1 2 2 2 2 2 2 2 1 2 2 2 2 2 2 2 3 3 3 4 4
6 6 5 5 5 3 4 9 5 0 1 2 3 3 2 2 2 2 2 2 2 1 1 1 1 1 1 1 1 1 2 1 2 2 2 2 2 2 2 2 2 3 2 2 3 3 3 3 4
5 5 2 1 1 4 6 6 5 1 1 1 2 2 2 2 1 1 1 1 1 1 1 1 1 1 1 1 1 1 1 1 2 2 2 2 2 2 2 2 3 3 3 3 3 3 3 4 4
3 4 3 4 4 6 6 7 5 2 2 1 2 3 2 1 1 1 1 1 0 0 1 1 1 1 1 1 1 1 1 2 2 2 2 2 2 2 3 3 3 3 2 3 3 3 4 4 4
4 5 4 3 3 5 5 4 0 2 2 2 3 2 2 2 1 1 1 1 0 0 0 0 0 0 0 1 1 1 1 2 2 2 2 2 2 3 3 3 3 3 3 3 4 4 4 5 5
4 5 6 5 5 5 5 5 3 0 1 2 2 1 1 1 1 1 0 0 0 0 0 0 1 1 1 1 1 1 1 2 2 2 2 2 3 3 3 3 3 3 3 4 4 5 5 5 5
Wind_Direction
323 317 265 223 210 215 223 199 198 171 162 81 49 163 134 44 342 54 65 107 126 147 146 144 119 121 117 111 109 109 107 107 104 102 102 98 98 96 93 90 87 85 84 83 82 79 75 73 74
322 298 221 213 227 219 210 200 200 196 122 109 100 131 135 105 34 62 88 103 140 141 144 138 109 113 111 105 104 108 105 104 104 102 100 94 93 95 94 90 89 87 84 84 82 80 77 74 73
290 291 219 201 223 231 201 176 193 150 140 163 128 55 26 62 82 77 59 136 139 135 137 117 103 107 109 103 98 102 103 97 96 97 100 97 89 84 86 86 88 84 84 84 82 80 77 76 75
230 177 194 222 220 233 247 148 147 149 142 127 159 131 105 46 35 49 99 142 140 136 133 119 103 104 104 103 99 98 98 95 91 91 93 91 83 73 70 71 76 79 80 83 81 77 75 75 76
225 201 201 220 229 218 230 244 198 196 165 147 178 151 120 76 56 88 122 140 140 138 133 127 105 101 100 100 99 96 93 91 89 85 85 82 76 71 64 62 63 65 73 78 80 79 78 75 71
176 207 218 222 218 216 224 229 205 218 203 176 188 174 117 85 88 101 121 133 131 133 129 125 105 96 96 95 94 92 90 87 83 82 81 79 74 67 62 61 55 53 56 67 78 82 80 74 71
202 206 225 226 221 222 224 203 219 217 216 219 225 184 135 113 96 119 126 125 119 120 118 121 123 114 97 88 84 79 77 75 75 78 74 72 70 66 58 56 57 53 48 53 66 74 78 78 75
228 207 214 217 219 222 201 183 222 239 231 51 224 210 159 113 116 131 127 119 112 111 117 119 125 124 126 118 85 69 66 66 69 71 69 69 75 71 60 55 53 51 48 51 66 72 70 71 70
211 221 227 221 215 205 170 188 172 81 142 132 133 10 34 104 131 136 133 129 118 104 111 121 115 114 119 121 99 93 78 71 79 88 79 75 93 93 83 55 42 38 33 39 66 73 73 69 72
213 226 234 244 232 195 172 206 188 178 188 198 174 94 85 130 147 155 159 161 159 151 128 128 134 128 124 107 111 110 104 106 100 103 106 96 79 67 60 67 54 47 38 39 56 75 85 52 69
198 230 225 226 229 214 198 216 221 211 230 233 227 186 151 156 173 179 184 181 181 173 144 142 143 146 137 124 122 103 93 92 99 76 64 83 98 89 70 82 83 72 50 44 59 69 44 18 359
176 228 243 259 247 232 228 215 223 238 251 298 268 191 175 183 195 200 200 200 192 183 176 152 162 163 152 144 144 130 126 108 87 67 51 46 55 50 36 10 3 8 20 23 12 12 10 353 334
203 219 225 230 159 214 213 235 246 248 260 281 219 175 194 201 210 215 213 208 200 199 191 175 177 174 170 161 153 146 154 146 129 87 89 18 1 354 349 356 344 341 352 346 349 347 316 304 320
181 203 236 263 244 239 234 258 243 248 241 214 195 203 208 209 214 215 214 210 206 208 202 180 183 177 169 169 167 157 171 169 174 142 72 73 326 307 300 314 328 346 353 342 310 299 290 287 290
190 216 249 258 247 243 241 252 235 240 222 218 209 213 219 222 219 222 223 220 212 210 206 196 194 178 173 176 178 162 174 175 189 178 163 98 316 253 266 261 268 336 345 327 312 316 298 303 279
193 222 238 230 234 232 233 251 234 214 218 230 228 223 232 229 233 240 237 227 218 209 207 202 189 185 182 181 184 182 182 186 196 153 119 20 359 304 253 265 288 329 317 300 310 307 284 287 289
207 228 241 244 219 232 230 256 250 220 226 239 240 237 235 232 247 253 248 229 214 204 203 199 191 190 191 188 186 186 180 179 187 138 78 355 345 339 310 282 292 270 271 271 284 280 284 282 303
215 227 240 245 229 240 243 255 258 245 241 246 242 238 235 240 247 252 248 230 200 189 193 197 195 192 184 174 170 176 171 181 190 130 33 24 354 330 290 308 313 281 257 272 285 284 296 294 304
217 228 248 256 268 257 256 264 264 254 244 247 241 239 237 242 254 240 223 201 181 172 181 191 197 191 176 172 184 193 201 208 216 45 344 294 310 271 251 319 299 300 275 270 267 278 278 305 307
218 236 249 259 248 258 271 268 262 247 242 245 241 239 240 244 244 234 228 197 196 191 195 196 201 194 192 195 199 213 207 210 229 239 256 282 301 288 259 259 257 262 271 264 261 269 274 282 291
227 236 246 259 282 250 280 266 240 227 228 236 240 240 237 234 234 227 211 212 201 203 210 210 208 201 197 194 174 150 149 158 187 284 293 289 283 280 267 256 258 253 241 247 252 250 264 270 270
235 232 241 244 251 252 266 277 251 221 230 229 231 233 235 232 227 219 208 205 205 213 212 210 199 180 180 183 186 181 191 211 241 272 271 286 283 277 277 263 250 249 250 255 264 265 265 258 255
222 225 228 236 241 260 232 252 260 213 237 237 234 236 237 232 222 213 207 205 196 192 181 175 159 150 157 185 192 199 212 234 242 255 267 281 281 282 307 293 269 260 260 262 264 267 265 256 253
177 175 183 210 227 247 231 234 261 216 236 253 245 240 234 224 215 209 200 190 181 168 144 132 147 132 114 166 190 198 207 217 231 249 258 266 281 286 303 303 296 285 276 267 261 260 261 262 257
194 190 213 215 218 237 195 233 253 242 238 253 260 253 242 217 203 197 195 192 187 187 165 157 165 166 183 190 203 214 220 216 221 240 255 261 266 283 291 294 289 285 284 281 269 258 260 261 260
203 214 218 236 239 242 206 236 248 272 284 267 272 255 229 206 199 203 206 200 197 201 191 179 188 201 214 218 236 234 233 231 239 251 265 265 277 284 297 292 289 282 283 283 276 265 262 264 262
190 212 260 236 323 265 240 248 262 180 236 222 230 219 212 202 191 195 194 190 191 197 202 200 203 209 226 237 244 246 253 253 258 265 269 277 291 296 291 286 281 282 280 279 276 272 275 272 268
242 174 177 203 229 247 251 247 243 214 241 229 233 224 207 173 165 175 185 188 184 197 194 187 193 194 223 255 269 273 265 270 272 267 278 289 293 295 293 290 289 285 281 280 275 278 277 276 275
175 185 195 200 237 242 257 246 180 225 227 239 241 227 197 182 178 178 165 142 93 62 83 70 47 18 353 324 301 291 287 287 282 288 299 299 298 298 290 287 287 286 285 284 278 278 281 277 278
233 209 188 208 222 229 254 262 95 269 298 267 269 242 171 164 153 136 125 103 78 18 3 12 10 348 329 327 330 311 302 297 295 298 300 303 298 297 292 289 283 282 282 282 278 277 277 277 277